Showing default

LES 9, 8747

Orbit data source: Space-Track

LES 9, 8747 is a payload satellite owned by SAMSO (US) in GEO that was launched on Mon, 15 Mar 1976 UTC via a TITAN IIIC launch vehicle from the Air Force Eastern Test Range (AFETR). Payload-class satellites include a variety of spacecraft equipped with specific instruments for various scientific and technological missions. These include communications satellites like Starlink; space stations such as the ISS; scientific satellites like the Hubble; Earth observation satellites from companies like Planet Labs, Umbra, and HawkEye 360; GPS; miniature CubeSats for education and research; and military/defense satellites.

Loading next visibility...
Identifier
8747, 1976-023B
Orbit
GEO
Country
Flag of USUS
Related business
Manufacturer
MIT-LL
Mission
Non-operational spacecraft
Bus & Motor
LES, Unknown motor
Mass
420 kg wet, 366 kg dry
Launch date (UTC)
1976-03-15 (50 years ago)
Launch vehicle
TITAN IIIC
Launch site
Air Force Eastern Test Range (AFETR)
Object type
Payload
Rocket body
Debris
Shape & HBR
Unknown
Radar Cross Section
Large (>1 m²)

Expand to show TLE details & history
Last TLE update: 1 day ago

TLE from 1 day ago
0 LES 9
1 08747U 76023B   25349.18038506 -.00000111  00000-0  00000-0 0  9992
2 08747  22.0182  39.3949 0025071 178.3775 186.7734  1.00277576127835
Epoch: 2025-12-15T04:19Z
TLE epoch observation values (Epoch: 2025-12-15T04:19:45.269Z)
Latitude
1.91854°
Longitude
-104.88172°
Altitude
35,889.467 km
Speed
3.067 km/s
True Right ascension
02h 56m 33s
True Declination
1° 54' 60"
Sunlit
Object was in daylight at epoch
Visualization orbit readout
Latitude
Unknown
Longitude
Unknown
Altitude
Unknown
Speed
Unknown
Apparent Right ascension
Unknown
Apparent Declination
Unknown
Sunlit
N/A
Visualization observer readout
Local Sidereal Time
12:26:21
Azimuth
Unknown
Elevation
Unknown
Doppler factor
Unknown
Orbital elements
Apogee altitude
35,891.531 km
Perigee altitude
35,680.113 km
Semi-major axis
42,163.959 km
Eccentricity
0.00251
Inclination
22.0182°
RAAN
39.3949°
Arg. of periapsis
178.3775°
True anomaly
186.73962°
Mean anomaly
186.7734°
Eccentric anomaly
186.7565°
Mean motion
0.25069 °/min
Orbital period
1,436.06 mins
BSTAR
0
Loading maneuver chart data...
Computing Atmospheric mass density...
Loading historical data...
Loading historical data...
Loading historical data...
Loading historical data...
Loading historical data...
Loading historical data...
Loading historical data...

Documentation

Showing up to 5 results
|